Location: M�nchen
(48.1404°N, 11.6043°E)
Time: 04:57:17
(UTC+01:00)

Tiangong 2 - Visible Passes

Search period start: 18 January 2018 00:00
Search period end: 28 January 2018 00:00
Orbit: 384 x 390 km, 42.8° (Epoch: 17 January)

Date Brightness Start Highest point End Pass type
(mag) Time Alt. Az. Time Alt. Az. Time Alt. Az.
18 Jan 3.9 06:36:49 10° SSW 06:38:47 15° SSE 06:40:46 10° ESE visible
19 Jan 4.1 05:39:34 10° SSE 05:40:21 11° SSE 05:41:08 10° SE visible
19 Jan 3.1 07:13:45 10° SW 07:16:29 26° SSE 07:19:13 10° ESE visible
20 Jan 3.3 06:15:46 12° SSW 06:17:56 21° SSE 06:20:26 10° ESE visible
21 Jan 3.9 05:20:01 15° SE 05:20:01 15° SE 05:21:28 10° ESE visible
21 Jan 2.7 06:52:51 10° WSW 06:55:41 30° S 06:58:32 10° ESE visible
22 Jan 2.7 05:56:27 24° S 05:57:07 26° S 05:59:51 10° ESE visible
23 Jan 4.3 05:00:30 13° ESE 05:00:30 13° ESE 05:01:03 10° ESE visible
23 Jan 2.5 06:32:47 15° WSW 06:34:53 31° S 06:37:45 10° ESE visible
24 Jan 2.8 05:36:47 28° SSE 05:36:47 28° SSE 05:39:07 10° ESE visible
24 Jan 2.9 07:09:57 10° WSW 07:12:38 25° SSW 07:15:19 10° SE visible
25 Jan 2.5 06:13:02 24° SW 06:14:02 29° S 06:16:51 10° SE visible
26 Jan 3.6 05:16:59 19° SE 05:16:59 19° SE 05:18:16 10° ESE visible
26 Jan 3.1 06:49:20 10° WSW 06:51:43 19° SSW 06:54:06 10° SSE visible
27 Jan 2.7 05:53:12 24° S 05:53:12 24° S 05:55:48 10° SE visible
